Theta_e
312 312 313 313 312 312 311 312 312 312 310 306 305 304 305 305 304 303 303 306 299 296 297 298 300 298 299 299 296 299 297 300 300 296 295 294 292 293 290 293 291 290 287 287 289 286 283 299 298 287 294 296 297 297
311 311 312 311 311 311 311 311 312 312 310 307 305 305 304 304 304 302 303 306 304 297 298 300 300 301 301 301 299 300 297 296 301 298 298 297 291 292 291 286 296 289 294 289 290 291 300 301 297 300 301 300 298 295
312 312 311 311 311 311 310 311 311 312 310 307 305 305 305 304 303 303 303 303 301 296 299 299 300 304 305 303 306 298 301 301 302 306 299 296 291 295 290 291 291 295 298 292 292 297 297 300 302 302 302 301 301 300
311 311 311 311 310 310 310 310 311 311 309 307 306 305 305 304 303 303 303 304 301 299 295 301 305 302 306 306 304 304 303 306 305 303 297 296 292 299 294 295 294 297 296 294 294 297 296 300 301 302 302 301 299 298
310 310 311 311 310 310 310 310 310 310 309 307 306 305 305 304 303 304 304 307 306 299 295 298 303 304 305 305 303 304 303 301 300 298 295 293 298 297 299 297 294 298 295 291 288 295 294 297 302 303 300 298 297 296
308 309 310 310 310 310 310 310 310 310 309 307 306 305 305 304 301 301 297 305 307 304 297 296 302 300 301 302 304 303 304 301 300 299 298 300 303 300 294 291 298 301 303 302 297 300 302 303 304 303 299 298 297 295
308 308 309 310 310 310 310 310 310 310 308 307 305 305 304 303 304 298 296 303 303 306 298 295 298 300 301 303 304 303 303 303 301 300 298 299 299 302 296 292 299 302 301 303 305 303 300 302 299 301 300 299 297 296
307 308 308 309 310 310 310 310 310 309 307 306 305 304 303 303 302 301 305 301 304 301 298 293 296 296 302 301 300 305 301 301 301 300 302 299 301 301 293 298 301 302 303 303 302 304 303 304 300 300 300 297 294 292
306 307 308 309 309 309 309 310 309 307 306 305 304 303 303 301 298 302 303 303 305 299 295 296 294 294 302 301 302 301 302 296 303 297 298 300 299 292 297 299 300 302 302 302 304 303 303 302 295 298 297 294 292 290
306 307 308 308 309 309 309 308 307 306 304 304 301 297 296 301 305 305 302 297 297 296 298 293 300 294 299 302 300 299 301 298 294 296 302 297 295 301 301 303 303 304 304 304 301 300 300 296 297 297 295 294 292 291
306 307 307 308 309 309 308 307 305 304 302 297 294 295 301 303 301 299 295 293 294 291 295 296 296 296 302 296 296 301 296 299 290 294 296 294 294 299 301 302 304 305 305 304 304 304 304 298 298 295 293 294 292 291
306 307 307 308 308 308 306 305 304 299 297 298 298 301 301 298 296 291 291 294 291 292 296 295 297 299 302 304 298 299 294 296 288 299 293 290 298 300 301 302 303 304 304 303 303 304 302 301 299 296 294 293 292 293
305 306 307 307 307 306 305 303 300 300 300 299 296 294 294 293 286 286 285 288 291 295 297 297 296 300 300 301 298 297 291 291 299 293 291 296 300 301 302 303 303 304 304 303 303 304 303 300 299 296 294 294 293 294
306 306 307 306 305 305 304 301 301 300 299 292 289 284 287 286 289 291 292 295 298 299 298 299 298 297 300 296 297 290 294 296 288 287 289 298 299 301 302 303 303 302 302 301 304 303 301 299 297 296 295 294 294 293
306 306 306 305 304 304 302 301 301 300 295 290 290 286 287 294 295 295 297 297 299 302 300 298 298 297 296 293 295 292 288 286 290 290 298 300 301 301 302 302 301 301 301 301 304 303 301 299 296 295 296 295 295 295
305 304 302 303 303 302 301 300 299 299 296 293 291 290 294 291 292 294 295 295 300 300 300 299 293 291 290 292 289 288 286 285 292 298 301 301 299 300 301 302 301 301 302 302 305 303 301 300 297 295 296 295 295 295
300 299 302 302 302 301 299 298 295 291 291 289 290 295 295 296 296 295 296 296 300 297 292 293 287 288 295 289 287 292 289 293 300 300 302 300 300 300 301 301 301 301 302 303 304 304 302 302 300 297 294 295 296 296
298 301 302 301 299 297 297 297 293 291 287 291 289 292 293 295 295 296 297 298 296 295 294 289 294 289 287 285 288 293 297 299 301 302 302 301 301 301 301 301 301 302 303 303 306 304 302 301 298 296 295 296 296 296
300 301 301 300 299 296 291 291 294 287 289 292 292 293 294 294 295 296 297 298 298 298 294 292 288 288 289 293 293 295 296 298 297 298 299 300 301 301 301 302 302 302 303 303 306 304 302 301 300 298 297 297 295 296
301 300 300 299 299 295 289 289 294 291 288 291 293 292 293 293 295 295 295 295 295 293 290 288 289 292 293 295 296 296 297 298 297 295 296 297 299 300 301 301 301 303 303 303 306 297 303 301 300 299 298 297 296 295
299 298 298 300 296 295 292 289 289 293 293 291 294 292 291 293 291 291 292 295 291 290 289 292 293 295 297 297 298 298 297 297 296 295 295 295 298 299 299 301 302 302 301 302 302 302 300 300 300 300 298 298 298 298
295 297 294 295 290 290 292 295 290 292 291 292 291 292 289 289 289 291 294 291 290 291 293 293 294 295 295 296 296 298 298 298 299 297 294 295 296 298 299 301 300 300 301 302 304 304 303 302 301 301 300 299 298 299
296 294 292 292 287 287 285 295 287 288 285 287 290 286 287 288 291 295 288 291 292 295 295 295 296 297 296 297 298 298 299 298 297 298 298 299 299 300 300 301 302 301 301 303 306 306 304 296 299 301 301 300 298 297
296 291 287 287 288 283 288 285 288 286 287 286 285 283 286 289 292 289 286 290 293 296 296 296 296 296 296 297 296 297 298 299 299 299 300 299 299 300 301 302 303 304 304 303 306 308 306 305 298 301 301 300 299 298
286 285 287 281 288 284 282 282 282 283 282 285 283 284 287 291 286 286 286 290 295 296 297 298 297 296 295 296 297 298 303 302 301 299 301 302 301 302 302 303 304 305 306 306 307 306 306 306 305 302 301 300 300 300
281 285 283 284 283 282 283 280 282 283 284 283 284 289 291 287 283 283 289 295 297 299 300 301 298 296 296 298 298 300 302 305 304 302 306 307 307 305 304 302 301 304 310 309 310 306 305 306 305 302 301 299 291 300
279 282 287 291 289 287 285 287 288 285 283 282 286 286 286 281 282 289 297 299 297 298 301 303 301 299 297 298 301 303 304 305 304 303 305 306 308 307 304 304 303 307 310 312 312 308 306 306 306 304 302 302 301 301
285 286 283 286 286 288 284 285 284 283 285 289 288 284 283 284 287 296 296 298 297 298 298 300 302 303 303 303 303 303 303 305 305 305 305 306 306 306 307 307 308 294 309 312 313 310 309 308 308 306 304 303 302 303
284 287 287 283 284 284 285 284 285 288 290 290 286 285 288 295 298 297 297 298 298 296 295 296 299 302 303 304 304 304 304 304 301 299 299 301 302 304 309 310 310 310 312 312 291 299 308 308 309 308 307 306 305 305
284 289 285 284 283 283 287 290 290 292 294 293 293 292 292 293 296 299 296 294 292 292 293 294 295 298 299 300 300 301 304 304 303 302 300 300 302 307 309 311 311 312 313 312 310 308 289 304 301 310 307 307 307 305
289 287 284 285 285 288 290 292 293 293 292 290 291 288 287 289 292 294 294 294 295 297 297 293 293 295 296 298 299 300 300 304 305 305 305 304 305 307 309 312 316 316 312 312 311 310 309 308 308 307 307 306 306 304
287 285 285 284 286 288 288 288 288 287 288 287 287 288 288 286 287 289 294 294 295 295 293 296 296 296 299 299 302 304 292 305 306 306 306 305 305 307 309 311 316 315 313 312 311 310 309 307 307 306 307 307 307 307
287 287 287 287 287 287 288 288 288 287 288 288 287 287 287 287 284 288 292 296 295 295 296 302 304 305 305 304 305 305 296 307 301 290 290 290 290 295 308 314 316 314 312 310 309 308 307 308 309 308 308 306 305 305
Wind_Speed
16 16 15 13 12 12 11 10 9 8 9 8 5 1 3 6 9 6 4 4 5 3 5 4 4 5 4 4 5 6 6 6 5 4 3 3 5 4 6 10 12 10 6 8 8 11 7 16 19 2 9 13 21 19
18 17 16 14 13 13 12 11 10 8 11 10 9 6 1 3 5 7 1 1 3 5 5 3 8 11 11 9 7 2 5 5 4 4 3 3 6 6 10 7 4 5 5 7 7 9 22 18 17 14 18 20 20 17
18 17 16 14 13 14 14 12 11 10 13 13 11 9 5 1 3 7 3 3 4 4 5 5 3 4 5 10 8 5 3 3 3 5 6 3 6 5 7 9 11 9 9 6 11 9 18 18 16 19 19 21 24 22
17 18 17 16 16 15 15 14 13 12 15 14 13 10 7 4 1 5 4 3 3 3 5 5 3 4 3 5 8 11 8 2 5 5 4 4 4 5 6 11 13 11 9 7 14 18 15 14 21 22 23 24 23 22
16 17 17 18 17 18 17 15 14 13 16 17 14 11 9 6 4 5 4 1 2 5 6 5 5 3 4 4 6 8 9 8 6 5 4 5 6 7 6 5 8 4 6 3 5 11 15 17 22 22 23 24 20 21
16 16 17 17 18 19 18 16 15 14 18 17 16 13 10 7 6 4 4 4 3 3 5 3 3 3 3 5 7 7 7 6 6 4 5 5 9 5 4 4 2 6 10 11 10 10 18 20 20 22 22 21 21 20
13 15 16 18 20 20 18 17 16 18 20 19 16 13 10 7 5 4 6 5 4 3 4 4 3 5 3 3 4 4 5 4 6 4 5 7 5 4 4 8 8 15 14 15 13 13 17 18 15 20 19 21 19 18
12 14 15 17 19 19 19 18 18 22 21 18 16 12 8 5 5 5 4 7 4 4 3 4 2 4 1 3 2 2 4 5 6 4 3 5 2 3 4 7 13 15 17 15 14 16 17 18 17 22 19 16 16 16
12 14 15 15 17 17 18 19 23 24 22 19 15 12 5 5 4 3 9 7 3 4 4 3 3 2 1 3 2 4 3 5 4 5 2 3 2 5 4 11 15 15 15 18 17 17 19 18 15 20 19 17 11 15
13 14 15 15 16 16 18 24 27 26 25 21 7 5 4 3 18 13 6 4 4 4 3 5 1 4 3 1 2 3 3 3 4 4 1 4 4 7 7 10 11 14 16 16 18 19 20 13 18 20 18 13 12 13
15 15 15 15 17 17 23 27 30 28 20 3 5 3 6 10 4 4 4 5 4 4 5 4 5 3 4 5 4 0 4 1 4 4 3 3 3 1 5 9 11 11 14 16 17 17 17 11 16 15 15 12 12 14
15 15 16 16 16 22 28 32 32 8 6 7 6 6 5 5 4 5 5 4 6 4 6 5 5 4 2 1 4 3 4 2 5 2 4 3 1 3 7 9 11 13 15 17 17 16 14 16 14 13 10 13 11 14
15 15 17 17 24 30 32 32 18 18 11 3 2 6 5 5 5 8 9 6 5 5 6 6 7 3 5 4 4 4 6 5 1 4 3 3 2 4 7 8 11 13 15 17 17 14 14 16 15 14 10 11 12 12
14 16 17 25 30 32 33 26 26 14 3 4 7 6 8 8 8 6 5 3 4 4 7 6 4 4 2 4 3 5 3 2 5 3 5 2 4 6 7 9 11 15 16 18 16 12 14 14 14 14 7 10 11 12
16 16 23 27 30 31 29 21 19 3 3 5 5 7 9 2 2 4 3 4 5 5 5 4 3 4 3 4 4 4 4 6 4 4 2 5 5 6 7 9 11 14 14 15 13 13 13 11 12 12 10 10 11 11
24 21 10 29 29 27 25 15 3 1 1 4 4 4 2 6 8 6 7 7 6 6 4 3 3 4 6 4 6 8 6 5 3 2 3 3 5 7 8 10 11 13 14 14 10 10 11 11 9 9 11 10 11 11
10 4 26 27 28 26 21 8 5 6 4 5 5 3 4 1 1 6 7 6 7 7 7 3 6 8 2 6 9 4 8 8 1 3 2 4 6 7 9 11 13 13 13 12 8 9 10 9 12 7 11 10 11 12
8 19 31 30 21 14 3 2 3 4 6 4 4 5 6 4 3 4 5 5 7 8 7 4 4 8 7 10 10 8 4 3 3 2 2 4 6 8 9 11 12 13 12 12 9 7 8 9 11 7 9 9 9 10
18 18 28 24 8 5 4 2 3 4 4 2 4 3 4 4 4 4 5 7 7 4 4 3 8 9 11 11 11 10 7 5 7 4 5 8 9 9 10 11 11 11 12 12 9 6 6 6 7 6 6 6 6 7
26 28 23 12 1 3 5 3 2 2 4 2 3 4 5 5 5 7 8 8 8 9 8 9 11 10 8 6 6 6 7 6 6 8 9 8 8 9 10 9 8 11 9 9 7 4 5 6 5 6 6 7 6 6
16 11 10 4 3 3 3 3 3 2 1 3 1 4 5 5 6 8 8 8 10 12 13 13 13 12 13 11 9 9 9 10 10 9 10 9 8 9 8 9 8 7 8 6 6 3 2 5 4 6 5 5 6 6
5 11 4 3 3 2 1 2 1 2 3 1 3 4 5 7 8 8 7 10 12 12 13 12 12 11 11 13 12 13 13 13 12 10 9 9 10 9 8 6 6 7 6 4 4 4 5 5 4 4 4 4 5 5
10 5 3 3 3 2 3 2 5 4 5 3 2 4 4 4 3 2 5 8 11 12 12 12 14 15 14 13 10 11 12 12 10 9 9 8 8 8 8 7 7 6 5 3 3 2 4 2 2 4 6 7 5 5
4 3 3 4 3 4 3 4 3 3 3 5 4 4 4 4 4 5 7 8 8 8 7 8 7 7 8 10 9 9 9 9 8 8 8 8 7 7 7 7 5 4 3 3 3 3 4 5 2 5 6 8 8 5
3 3 4 3 4 5 6 5 5 5 6 7 5 6 4 4 5 6 9 7 3 3 3 4 6 7 7 7 7 6 3 5 6 7 6 7 7 6 6 5 3 2 2 3 4 5 5 5 5 6 7 8 9 11
4 6 6 8 5 6 7 5 7 9 6 5 6 3 3 4 5 7 4 0 2 2 3 2 3 6 7 6 5 5 5 2 3 5 2 2 1 3 3 2 3 4 2 3 3 6 7 7 8 10 9 8 5 10
4 6 5 3 3 4 4 5 3 3 5 6 4 4 4 5 6 3 4 4 2 2 2 3 3 4 5 6 4 5 4 2 1 4 4 4 3 3 2 1 5 1 3 1 3 5 8 7 8 9 9 8 8 9
3 3 9 8 6 5 5 4 4 6 5 3 2 6 5 5 2 4 3 3 2 3 4 5 5 4 3 3 5 5 5 3 3 5 5 5 5 4 4 4 3 5 1 3 2 6 6 7 9 9 10 9 9 9
4 3 5 7 6 5 7 6 5 4 4 3 3 4 3 2 3 2 1 2 6 8 9 10 10 7 5 5 5 5 4 4 4 4 4 4 2 4 3 1 2 0 3 6 2 5 6 5 8 9 10 9 9 9
5 6 5 5 5 7 6 7 5 4 3 3 2 2 4 6 6 6 7 6 6 7 7 8 8 10 11 9 8 9 7 6 6 6 5 4 2 5 4 2 2 5 5 7 7 8 6 8 7 8 8 7 7 8
2 4 4 4 4 5 6 5 3 3 3 2 3 3 4 2 2 2 5 6 8 7 6 8 8 8 9 11 10 10 9 8 8 10 8 6 4 4 4 4 2 1 4 7 7 9 10 8 8 9 9 9 7 5
4 6 4 4 2 1 1 3 2 2 2 2 1 2 2 2 1 2 4 7 6 5 2 7 7 8 9 8 8 8 2 6 5 7 11 7 7 6 4 3 3 2 6 11 10 10 10 9 8 8 7 7 7 7
3 3 3 3 2 2 3 3 3 2 1 1 2 3 2 1 4 3 5 7 6 6 5 2 4 6 10 9 7 5 4 5 1 4 2 2 2 3 4 4 2 4 7 9 10 10 11 10 8 8 8 8 8 8
Wind_Direction
217 216 220 218 216 218 218 225 234 220 191 196 200 177 39 35 15 318 72 9 325 298 280 238 236 265 240 243 298 46 254 165 241 285 311 353 288 334 292 299 295 301 298 303 302 286 291 342 339 287 295 304 295 297
217 217 219 212 210 214 209 214 219 216 191 192 195 190 182 51 13 325 302 87 317 256 335 310 288 289 277 292 302 163 350 313 351 291 288 322 302 286 281 290 321 281 299 295 283 294 308 336 312 311 299 307 310 314
220 217 215 210 215 215 204 201 206 208 186 192 195 185 183 175 41 334 339 346 246 269 232 229 176 136 198 234 242 275 147 351 208 343 320 319 266 300 283 307 304 291 310 251 292 274 320 316 310 306 324 316 319 318
226 220 214 211 215 212 205 197 203 200 181 187 192 185 181 176 162 296 315 6 278 298 285 110 168 268 334 210 213 228 287 249 288 261 268 272 271 269 277 287 294 308 306 264 277 296 312 291 311 318 330 324 319 317
227 227 221 215 211 209 201 195 199 195 179 186 184 183 183 171 147 269 294 271 269 314 322 324 313 132 193 224 230 227 229 233 250 239 233 246 266 278 275 322 267 274 320 274 267 288 284 295 306 332 330 328 321 318
231 229 227 224 211 207 197 192 195 185 176 178 180 177 183 166 186 245 218 153 190 282 274 289 53 198 216 257 251 226 209 217 239 238 259 248 267 276 278 228 296 331 309 293 288 281 284 297 319 336 327 331 324 319
233 233 232 228 216 203 194 191 188 176 171 175 170 176 173 164 234 277 358 30 165 246 267 274 214 135 282 265 186 162 170 208 246 243 247 269 275 220 259 279 335 320 317 302 316 307 307 320 336 332 323 333 318 312
240 237 229 223 216 202 191 189 182 169 161 163 159 161 157 173 262 231 151 170 231 275 253 273 258 215 8 244 221 178 194 212 193 265 245 269 295 292 271 275 314 318 319 324 319 319 314 323 353 320 327 328 316 321
244 239 232 224 218 205 196 184 166 155 150 151 145 143 154 219 222 82 123 163 226 308 294 243 272 37 243 233 270 200 246 241 101 244 266 253 197 229 274 317 324 323 322 324 322 319 330 340 321 320 337 323 318 321
244 240 234 229 224 214 196 170 153 145 137 136 146 195 177 124 115 141 170 180 184 202 224 262 271 242 293 329 224 278 182 293 264 158 74 233 258 281 284 319 315 330 331 327 332 332 330 339 316 337 333 325 323 317
243 242 236 228 221 205 171 152 139 135 124 182 166 151 80 143 186 203 198 218 170 222 205 225 237 252 137 286 341 2 323 276 268 114 263 250 259 241 311 335 338 331 327 335 334 330 338 318 334 340 328 324 324 318
242 235 230 218 199 166 152 144 143 131 157 152 119 106 151 199 208 224 204 171 217 235 162 201 174 212 139 246 263 192 269 211 260 97 242 246 150 349 347 338 333 337 338 344 338 342 345 326 351 331 323 324 322 317
243 234 222 204 167 153 149 146 131 126 118 80 130 156 179 151 203 213 189 192 199 186 169 176 175 220 159 222 248 250 236 233 51 241 247 254 22 350 346 335 328 334 345 341 337 354 330 345 354 332 319 328 318 322
240 221 205 167 153 148 146 146 145 142 110 177 168 159 213 183 217 195 214 149 109 171 154 176 181 221 182 209 244 252 224 259 246 210 226 182 56 4 345 343 331 338 348 342 344 342 346 0 351 338 341 329 326 331
233 198 160 153 147 144 141 152 154 172 177 178 187 208 201 201 134 190 139 140 161 153 153 157 217 247 203 251 230 273 233 236 201 234 192 66 21 360 350 340 338 334 343 338 352 342 351 0 358 344 341 336 332 333
132 124 129 134 132 131 137 141 191 276 226 199 216 202 145 204 180 176 184 192 156 177 171 216 222 225 217 213 218 216 245 235 230 238 87 84 21 2 349 336 335 335 336 337 6 330 348 353 360 343 336 341 338 334
106 111 140 134 128 124 138 141 174 203 215 213 202 225 220 311 197 183 189 195 169 191 204 182 212 212 217 232 223 235 254 270 48 171 104 49 355 342 337 334 333 337 334 335 346 354 354 352 9 335 343 343 332 333
93 131 133 129 125 133 117 206 162 180 207 203 215 167 207 253 225 182 201 175 189 212 200 212 283 224 228 236 232 247 213 254 259 282 325 335 324 322 327 328 325 332 329 337 334 349 4 357 14 357 347 340 335 343
137 134 128 130 126 99 117 167 277 197 214 148 220 200 219 232 211 253 216 192 224 242 186 194 237 237 242 253 268 280 280 241 263 275 307 296 296 302 312 312 316 319 328 322 354 351 8 14 16 354 344 341 342 356
131 131 132 94 48 121 119 105 260 254 202 121 227 220 221 234 213 209 217 212 195 198 211 224 235 247 256 255 271 281 285 290 293 278 279 288 294 300 291 313 311 314 303 317 31 286 25 30 31 23 4 352 350 25
108 111 103 93 55 31 85 147 175 252 110 240 115 230 234 209 224 223 222 209 214 221 234 241 253 260 262 266 272 261 269 278 281 281 288 291 296 297 299 293 293 302 294 329 334 95 62 44 36 70 22 355 1 12
81 79 81 46 72 54 90 169 21 118 227 210 211 218 251 237 237 231 225 227 225 235 236 246 251 255 253 246 251 247 257 263 264 270 254 254 256 263 266 288 315 299 301 340 318 37 65 56 27 71 56 12 5 16
91 53 68 159 127 124 121 205 208 203 231 181 192 230 220 222 216 127 231 227 235 238 243 244 246 247 255 262 247 244 241 249 256 258 259 256 256 262 265 276 275 273 294 327 5 82 79 87 72 51 90 85 76 24
109 90 152 161 155 139 173 179 216 229 223 218 218 237 229 223 150 232 252 253 247 230 226 227 237 231 219 223 234 226 222 224 242 253 255 255 254 253 256 264 270 271 278 16 274 142 138 101 109 69 64 75 83 95
131 167 157 158 190 173 189 190 199 211 234 206 216 233 218 178 232 253 260 262 265 214 227 222 227 220 217 198 197 194 168 249 243 243 238 231 249 263 257 245 250 254 80 235 219 159 130 123 96 80 84 78 78 91
188 165 194 178 173 206 191 201 203 213 221 205 223 245 211 228 246 250 244 164 63 6 358 328 248 205 200 212 199 188 163 200 234 241 177 222 225 27 341 27 121 113 145 239 202 134 126 116 115 108 104 103 101 93
208 178 181 240 198 192 227 235 229 217 199 216 224 198 211 229 239 222 101 74 60 48 6 354 329 251 220 177 178 128 148 145 351 350 320 296 280 289 309 3 146 135 44 315 199 140 124 125 116 112 108 99 95 94
258 255 204 178 208 219 237 258 215 221 225 204 209 212 218 227 284 65 73 85 67 6 346 342 329 311 291 160 160 168 186 200 244 262 258 237 232 238 239 248 267 71 296 279 192 136 127 116 118 131 118 112 111 107
227 209 214 209 205 213 216 218 236 224 223 213 221 231 256 335 28 8 315 315 310 295 284 278 260 249 225 217 219 224 225 235 250 256 265 266 174 141 84 348 144 313 204 158 202 46 100 116 118 122 129 123 121 125
232 198 213 228 207 222 222 204 240 254 263 260 251 284 284 283 291 319 300 289 272 252 236 229 244 246 227 220 219 215 215 224 237 251 256 267 7 32 355 340 184 198 190 167 132 125 107 126 121 129 133 140 136 131
198 179 213 231 247 243 253 251 275 265 259 252 253 255 260 287 293 257 263 281 278 266 220 194 200 216 223 228 229 224 223 213 224 233 245 270 268 292 310 324 356 185 198 196 166 160 154 165 140 134 133 122 126 154
193 197 222 229 235 148 137 172 171 205 203 219 231 191 186 239 261 300 311 327 343 356 74 167 184 196 201 205 223 236 289 261 228 225 230 220 233 249 266 287 270 145 153 157 161 159 160 136 136 132 120 120 126 118
195 202 221 265 251 209 162 179 170 147 167 70 37 355 30 20 18 331 305 342 336 334 311 225 192 166 167 186 195 179 209 216 207 8 167 247 331 350 282 220 157 179 175 165 154 145 146 144 133 127 118 111 105 101